"Pseudo-MPEC" for ZTF10Fj

Created 2026 Sep 5 9:35:16 UT using Find_Orb

Click here for an explanation of pseudo-MPECs

 
 Astrometry: 
     ZTF10Fj*0C2026 09 04.36368523 23 10.288-15 39 52.67   ~94JZ 16.43gUNEOCPI41
     ZTF10Fj 0C2026 09 04.36403223 23 13.350-15 38 49.17   ~94JZ 16.43gUNEOCPI41
     ZTF10Fj 0C2026 09 04.37330823 24 36.222-15 10 22.30   ~94JZ 16.07RUNEOCPI41
     ZTF10Fj 0C2026 09 04.37365623 24 39.305-15 09 17.34   ~94JZ 16.07RUNEOCPI41

Station data:
(I41) Palomar Mountain--ZTF  (N33.357336 W116.859780)  US/California.
   Observers B. T. Bolin, Z. T. F. Collaboration. Measurers B. T. Bolin,
   Z.-Y. Lin, F. J. Masci. 1.2-m f/2.4 Schmidt.

Orbital elements:  ZTF10Fj
   Perigee 2026 Sep 4.805303 +/- 36.4 TT = 19:19:38.1 (JD 2461288.305303)
Epoch 2026 Sep  4.0 TT = JDT 2461287.5                           AutoNEOCP
q372937.2116 +/- 1.88e+7            (J2000 equator)
H   28.05 G 0.15                    Peri.   20.320703 +/- 48
                                    Node     2.319458 +/- 60
e  58.17190976 +/- 0.245            Incl.   53.650116 +/- 3.5
From 4 observations 2026 Sept. 4 (14.4 min); mean residual 0".20
Residuals in arcseconds: 
260904 I41  .11+  .13-    260904 I41  .34+  .15-    
260904 I41  .12-  .14+    260904 I41  .32-  .14+    

Ephemerides (geocentric):
Date (UTC) HH   RA             Dec           delta  r     elong  mag " sig PA
---- --------  ------------   ------------  ------ ------ -----  --- --------
2026 09 05 10  03 57 07.201   +48 44 09.65  558998 1.0085  94.3 18.9  44d 103
2026 09 05 11  04 07 33.713   +49 32 04.40  580396 1.0084  92.5 19.1  43d 103
2026 09 05 12  04 17 33.016   +50 13 17.13  602362 1.0083  90.8 19.2  43d 103
2026 09 05 13  04 27 04.745   +50 48 36.67  624833 1.0082  89.2 19.4  42d 103
2026 09 05 14  04 36 08.945   +51 18 47.20  647758 1.0081  87.8 19.5  42d 104
2026 09 05 15  04 44 45.998   +51 44 28.30  671089 1.0079  86.4 19.6  42d 104
2026 09 05 16  04 52 56.548   +52 06 15.09  694784 1.0078  85.2 19.8  41d 104
2026 09 05 17  05 00 41.444   +52 24 38.54  718808 1.0077  84.0 19.9  41d 104
2026 09 05 18  05 08 01.680   +52 40 05.79  743128 1.0076  82.9 20.0  41d 104
2026 09 05 19  05 14 58.347   +52 53 00.57  767715 1.0075  81.9 20.1  41d 104
2026 09 05 20  05 21 32.593   +53 03 43.52  792544 1.0073  80.9 20.3  40d 104
2026 09 05 21  05 27 45.592   +53 12 32.56  817593 1.0072  80.1 20.4  40d 104
2026 09 05 22  05 33 38.519   +53 19 43.23  842842 1.0071  79.2 20.5  40d 104
2026 09 05 23  05 39 12.530   +53 25 28.98  868274 1.0070  78.4 20.6  40d 104
2026 09 06 00  05 44 28.750   +53 30 01.47  893871 1.0069  77.7 20.7  40d 104
2026 09 06 01  05 49 28.260   +53 33 30.74  919621 1.0067  77.0 20.8  40d 104
2026 09 06 02  05 54 12.094   +53 36 05.50  945510 1.0066  76.3 20.9  40d 104
2026 09 06 03  05 58 41.231   +53 37 53.28  971528 1.0065  75.7 21.0  40d 105
2026 09 06 04  06 02 56.599   +53 39 00.58  997663 1.0064  75.1 21.0  40d 105
2026 09 06 05  06 06 59.068   +53 39 33.05  .00684 1.0063  74.6 21.1  40d 105
2026 09 06 06  06 10 49.456   +53 39 35.55  .00702 1.0062  74.0 21.2  40d 105
2026 09 06 07  06 14 28.526   +53 39 12.32  .00720 1.0060  73.6 21.3  40d 105
2026 09 06 08  06 17 56.992   +53 38 27.00  .00737 1.0059  73.1 21.4  40d 105
2026 09 06 09  06 21 15.521   +53 37 22.79  .00755 1.0058  72.6 21.4  40d 104
2026 09 06 10  06 24 24.731   +53 36 02.43  .00773 1.0057  72.2 21.5  40d 104
2026 09 06 11  06 27 25.199   +53 34 28.33  .00791 1.0056  71.8 21.6  40d 104
2026 09 06 12  06 30 17.461   +53 32 42.55  .00809 1.0054  71.4 21.7  40d 104
2026 09 06 13  06 33 02.018   +53 30 46.92  .00827 1.0053  71.0 21.7  40d 104
2026 09 06 14  06 35 39.331   +53 28 43.01  .00845 1.0052  70.7 21.8  40d 104
2026 09 06 15  06 38 09.833   +53 26 32.18  .00863 1.0051  70.4 21.9  40d 104
2026 09 06 16  06 40 33.924   +53 24 15.63  .00881 1.0050  70.0 21.9  40d 104
2026 09 06 17  06 42 51.978   +53 21 54.41  .00899 1.0049  69.7 22.0  40d 104
2026 09 06 18  06 45 04.342   +53 19 29.40  .00917 1.0048  69.4 22.0  40d 104
2026 09 06 19  06 47 11.338   +53 17 01.41  .00935 1.0046  69.2 22.1  40d 104
2026 09 06 20  06 49 13.268   +53 14 31.11  .00953 1.0045  68.9 22.2  40d 104
2026 09 06 21  06 51 10.413   +53 11 59.10  .00972 1.0044  68.6 22.2  40d 104
2026 09 06 22  06 53 03.034   +53 09 25.91  .00990 1.0043  68.4 22.3  40d 104
2026 09 06 23  06 54 51.375   +53 06 51.99  .01008 1.0042  68.2 22.3  40d 104
2026 09 07 00  06 56 35.664   +53 04 17.72  .01026 1.0041  67.9 22.4  40d 104
2026 09 07 01  06 58 16.114   +53 01 43.45  .01045 1.0040  67.7 22.4  40d 104
2026 09 07 02  06 59 52.924   +52 59 09.47  .01063 1.0038  67.5 22.5  41d 104
2026 09 07 03  07 01 26.281   +52 56 36.03  .01081 1.0037  67.3 22.5  41d 104
2026 09 07 04  07 02 56.359   +52 54 03.36  .01100 1.0036  67.1 22.6  41d 104
2026 09 07 05  07 04 23.321   +52 51 31.65  .01118 1.0035  66.9 22.6  41d 104
2026 09 07 06  07 05 47.321   +52 49 01.04  .01136 1.0034  66.8 22.7  41d 104
2026 09 07 07  07 07 08.503   +52 46 31.69  .01155 1.0033  66.6 22.7  41d 104
2026 09 07 08  07 08 27.001   +52 44 03.71  .01173 1.0032  66.4 22.8  41d 104
2026 09 07 09  07 09 42.942   +52 41 37.20  .01192 1.0030  66.3 22.8  41d 104